Preview of NWS' New Version of Forecast
This preview is not operational and should not be used for support decisions.

Regional Weather Roundup (RWR)

Issued by Philadelphia/Mt Holly (PHI)

                            
000
ASUS41 KPHI 180412
RWRPHI

REGIONAL WEATHER ROUNDUP
NATIONAL WEATHER SERVICE MOUNT HOLLY NJ
1100 PM EST THU JAN 17 2019

NOTE:  "FAIR" INDICATES FEW OR NO CLOUDS BELOW 12,000 FEET WITH NO
SIGNIFICANT WEATHER AND/OR OBSTRUCTIONS TO VISIBILITY.

 * = STATION DOES NOT REPORT PRECIPITATION (E.G. RAIN, SNOW, ETC.) 
        OR FOG.

NJZ015>026-180500-
SOUTHERN NEW JERSEY
  
CITY           SKY/WX    TMP DP  RH WIND       PRES   REMARKS
POMONA         CLOUDY    31  25  78 CALM      30.22F                  
WILDWOOD*      CLOUDY    37  25  61 E5        30.21F WCI  33          
MILLVILLE      CLOUDY    31  24  75 N3        30.22F                  
WRIGHTSTOWN    FLURRIES  29  21  71 CALM      30.20F                  
MOUNT HOLLY    CLOUDY    30  22  72 CALM      30.24S                  
TRENTON        CLOUDY    30  21  69 CALM      30.23S                  

$$
NJZ001>014-180500-
NORTHERN NEW JERSEY
  
CITY           SKY/WX    TMP DP  RH WIND       PRES   REMARKS
SUSSEX         LGT SNOW  26  21  81 CALM      30.22S                  
ANDOVER*         N/A     25  20  81 CALM      30.22S                  
MORRISTOWN     FLURRIES  28  21  74 CALM      30.24S                  
NEWARK         CLOUDY    32  18  56 E5        30.25S WCI  27          
TETERBORO      CLOUDY    32  15  49 E7        30.25S WCI  26          
CALDWELL       CLOUDY    29  18  63 CALM      30.25S                  
SOMERVILLE     CLOUDY    29  22  75 N3        30.23S                  
ALLAIRE*       CLOUDY    33  23  66 E5        30.24S WCI  29          
TOMS RIVER*    FLURRIES  30  25  81 CALM      30.23F                  

$$
PAZ043-044-047-054-055-060>062-066>071-180500-
EASTERN PENNSYLVANIA
  
CITY           SKY/WX    TMP DP  RH WIND       PRES   REMARKS
PHILADELPHIA   FLURRIES  31  23  72 CALM      30.24S                  
NORTH PHILA    CLOUDY    31  23  72 NE3       30.25S                  
BLUE BELL*     CLOUDY    30  23  74 CALM      30.24F                  
DOYLESTOWN     CLOUDY    28  19  69 CALM      30.21F                  
QUAKERTOWN*    CLOUDY    28  19  69 CALM      30.21F HAZE             
PERKASIE*      LGT SNOW  28  19  69 E3        30.22S                  
POTTSTOWN      LGT SNOW  28  19  69 CALM      30.23F                  
LANCASTER      LGT SNOW  28  25  88 E6        30.19F FOG     WCI  22  
COATESVILLE    LGT SNOW  27  23  86 CALM      30.20F                  
READING        LGT SNOW  28  22  78 SE5       30.20F WCI  23          
ALLENTOWN      FLURRIES  30  17  58 E5        30.22S WCI  25          
MOUNT POCONO   FLURRIES  20  13  74 SE10      30.10F WCI   9          
HAZLETON       LGT SNOW N/A N/A N/A SE7       30.12F                  
LEHIGHTON      LGT SNOW  28  18  64 CALM      30.21F                  
WILKES BARRE   LGT SNOW  24  14  65 VRB3      30.15F                  

$$
DEZALL-MDZ008-012-015-019-020-180500-
DELAWARE AND EASTERN MARYLAND
  
CITY           SKY/WX    TMP DP  RH WIND       PRES   REMARKS
WILMINGTON     CLOUDY    30  25  81 E5        30.23F WCI  25          
DOVER          FLURRIES  34  29  83 CALM      30.21S                  
GEORGETOWN     CLOUDY    37  27  67 CALM      30.20F                  
EASTON         CLOUDY    34  30  87 E5        30.23F WCI  30          
PATUXENT       LGT RAIN  37  35  92 E7        30.18  WCI  32          
OCEAN CITY     CLOUDY    40  32  73 SE9       30.19F WCI  34          
WALLOPS ISLAND CLOUDY    41  33  73 E5        30.19F                  
CAMBRIDGE      CLOUDY    34  30  86 CALM      30.19F                  
SALISBURY      CLOUDY    35  30  82 CALM      30.18F                  

$$
PAZ001-021-NYZ056-072-MDZ011-DCZ001-180500-
OTHER NEARBY LOCATIONS
  
CITY           SKY/WX    TMP DP  RH WIND       PRES   REMARKS
HARRISBURG     LGT SNOW  28  25  88 SE8       30.18F FOG     WCI  20  
STATE COLLEGE  CLOUDY    26  24  89 S6        30.09S WCI  20          
WILLIAMSPORT   CLOUDY    26  21  81 E9        30.14F WCI  17          
BINGHAMTON     LGT SNOW  20  16  84 S7        30.06F FOG     WCI  11  
NEW YORK CITY  CLOUDY    31  14  49 MISG      30.27R                  
BALTIMORE      CLOUDY    31  30  96 E6        30.19F FOG     WCI  25  
WASHINGTON DC  LGT SNOW  34  31  88 NE7       30.20S FOG     WCI  28  

$$